Other Public Products
Issued by NWS Grand Forks, ND

Home | Current Version | Previous Version | Text Only | Print | Product List | Glossary On
Versions: 1 2 3 4 5 6 7 8 9 10 11 12 13 14 15 16 17 18 19 20 21 22 23 24 25 26 27 28 29 30 31 32 33 34 35 36 37 38 39 40 41 42 43 44 45 46 47 48 49 50
000
FPUS83 KFGF 310531
OPUFGF
PRAIRIE TO PINES WEATHER ROUNDUP
NATIONAL WEATHER SERVICE EASTERN NORTH DAKOTA/GRAND FORKS ND
1200 AM CDT SUN JUL 31 2016

 **SATELLITE DATA USED TO AUGMENT SKY COVER AT AUTOMATED STATIONS**
 *****  WEATHER ACROSS EASTERN NORTH DAKOTA  *****

CITY           SKY/WX    TMP DP  RH WIND       PRES   REMARKS
GRAND FORKS    CLEAR     68  59  73 S9        29.89R
GRAND FORKS AF CLEAR     67  60  77 S12       29.89S
GRAND CITY NWS NOT AVBL
BUXTON           N/A     66  64  95 SE6         N/A
DEVILS LAKE    PTCLDY    70  62  76 SE17G23   29.86F
FARGO          CLEAR     71  56  58 SE13G20   29.91S
WAHPETON ARPT  CLEAR     63  55  77 SE7       29.93F
$$

 *****  WEATHER ACROSS CENTRAL AND WESTERN NORTH DAKOTA  *****

CITY           SKY/WX    TMP DP  RH WIND       PRES   REMARKS
JAMESTOWN      CLEAR     67  61  81 SE13      29.86F
BISMARCK       CLEAR     71  63  75 SE10      29.79F
MINOT          PTCLDY    72  65  78 SE7       29.78F
MINOT AFB      CLEAR     66  64  92 SE7       29.78F
GARRISON         N/A     70  65  84 SE7       29.79F
WILLISTON      CLOUDY    74  55  51 E7        29.76S
DICKINSON      CLEAR     69  59  70 SE12      29.76F
HETTINGER      CLEAR     73  59  61 SE13      29.80R
$$

 *****  OTHER OBSERVATIONS NORTHEAST NORTH DAKOTA  *****

CITY           SKY/WX    TMP DP  RH WIND       PRES   REMARKS
WALHALLA       FAIR      70  66  88 S8        29.86S
LANGDON        FAIR      66  63  88 S13G18    29.88S
CAVALIER       FAIR      70  63  78 S12       29.87S
GRAFTON        FAIR      68  63  83 S9        29.90S
CANDO          FAIR      68  64  88 S12G17    29.87S
FORT TOTTEN      N/A     68  61  77 SE9       29.95S
ROLLA          MOCLDY    64  63  94 S7        29.86S
RUGBY          NOT AVBL
 ***** THE ABOVE OBSERVATIONS ARE NON NWS ARE NOT QUALITY
        CONTROLLED AND MAY MIS-REPORT RAIN FOR SNOW...
$$

 *****  OTHER OBSERVATIONS SOUTHEAST NORTH DAKOTA *****

CITY           SKY/WX    TMP DP  RH WIND       PRES   REMARKS
COOPERSTOWN    NOT AVBL
VALLEY CITY    FAIR      66  63  88 S12G18    29.91F
OAKES            N/A    N/A N/A N/A MISG        N/A
GWINNER        FAIR      66  61  82 SE10      29.90F
SHEYENNE NWR     N/A     67  57  71 SE8       29.95S
BUFFALO          N/A     64  57  77 SE10        N/A
WYNDMERE         N/A     63  59  88 SE3         N/A
 ***** THE ABOVE OBSERVATIONS ARE NON NWS ARE NOT QUALITY
       CONTROLLED AND MAY MIS-REPORT RAIN FOR SNOW...
$$

  *****  WEATHER ACROSS NORTHERN MINNESOTA  *****

CITY           SKY/WX    TMP DP  RH WIND       PRES   REMARKS
FLAG ISLAND    MOCLDY    73  64  73 S8        29.93S
WARROAD        CLEAR     66  63  88 SE8       29.94S
ROSEAU         CLEAR     66  61  82 S7        29.93R
HALLOCK        CLEAR     66  63  88 SE8       29.89R
THF RVR FALLS  CLEAR     65  60  84 SE7       29.94S
HALSTAD          N/A     65  59  82 S8          N/A
FOSSTON        CLEAR     63  55  77 SE5       29.97R
BAUDETTE       CLEAR     64  59  83 S7        29.96S
WASKISH        CLEAR     63  61  94 CALM      29.98R
CROOKSTON      CLEAR     64  61  88 S8        29.92S
$$
  *****  WEATHER ACROSS CENTRAL AND WEST MINNESOTA  *****

CITY           SKY/WX    TMP DP  RH WIND       PRES   REMARKS
BEMIDJI        CLEAR     62  57  84 SE7       29.98R
PARK RAPIDS    CLEAR     67  59  75 SE8       29.98S
WADENA         CLEAR     63  57  82 E3        29.97F
DETROIT LAKES  CLEAR     64  59  82 SE6       29.97F
MOORHEAD       CLEAR     64  59  82 SE5       29.93S
FERGUS FALLS   CLEAR     66  57  72 SE7       29.96S
ELBOW LAKE     FAIR      65  58  80 SE6       29.96S
MORRIS MN      CLEAR     63  59  88 SE5       29.94F
STAPLES        CLEAR     64  61  88 CALM      29.99S
WHEATON        CLEAR     63  61  94 SE8       29.95S
$$
  *****  WEATHER ELSEWHERE ACROSS MINNESOTA  *****

CITY           SKY/WX    TMP DP  RH WIND       PRES   REMARKS
DULUTH         CLEAR     61  59  93 E8        30.03F
INTRNTL FALLS  CLEAR     57  56  96 SE3       29.99R
ELY            CLEAR     59  57  94 CALM      30.05R
CLOQUET        PTCLDY    61  57  88 E3        30.03S
BRAINERD       CLEAR     66  63  90 SE5       29.99S
HIBBING        CLEAR     55  55 100 CALM      30.03R
ALEXANDRIA     CLEAR     65  57  75 SE6       29.99F
SAINT CLOUD    CLEAR     66  64  93 E5        29.99S
MINNEAPOLIS    PTCLDY    70  65  84 SE7       30.00R
$$

  *****  WEATHER ACROSS SOUTH DAKOTA  *****

CITY           SKY/WX    TMP DP  RH WIND       PRES   REMARKS
SIOUX FALLS    CLOUDY    71  60  68 SE9       29.95F
BROOKINGS      CLEAR     66  59  78 SE9       29.95F
WATERTOWN      CLEAR     68  58  70 SE9       29.94F
HURON          PTCLDY    73  62  68 SE10      29.89S
SISSETON         N/A     61  58  90 S6        29.92F
ABERDEEN       CLEAR     68  60  75 SE10      29.87F
MITCHELL       CLOUDY    75  62  64 SE13      29.90S
PIERRE         CLOUDY    72  67  84 S9G20     29.81F
MOBRIDGE       PTCLDY    70  64  81 NE18      29.81R
RAPID CITY     CLOUDY    63  60  90 E3        29.86F
$$

  *****  SOME WEATHER IN NEARBY STATES *****

CITY           SKY/WX    TMP DP  RH WIND       PRES   REMARKS
GLASGOW MT     PTCLDY    69  59  70 SE8       29.68F
GREAT FALLS MT CLEAR     71  36  27 SW12      29.72R
CHEYENNE WY    MOCLDY    68  58  70 SE7       30.07F
SCOTTSBLUFF NE MOCLDY    71  62  73 E8        29.91F
OMAHA NE       PTCLDY    73  64  73 S8        29.97S
DES MOINES IA  CLEAR     72  65  78 SE6       29.99R
DAVENPORT IA   CLEAR     69  64  84 E8        30.01S
CHICAGO IL     MOCLDY    69  64  84 CALM      30.00F
EAU CLAIRE WI  PTCLDY    68  63  84 SE6       30.02S
LA CROSSE WI   CLEAR     68  65  90 SE6       30.02R
$$

  *****  SOME NATIONAL WEATHER *****

CITY           SKY/WX    TMP DP  RH WIND       PRES   REMARKS
LA GUARDIA NY  LGT RAIN  76  73  91 SE8       30.02F
RALEIGH NC     CLOUDY    77  73  87 W5        30.01S
ATLANTA GA     PTCLDY    75  74  96 SW6       30.05F
NEW ORLEANS LA PTCLDY    83  76  79 W5        30.03S HX  91
OKLAHOMA CITY  CLEAR     76  71  85 SE6       29.94S
ALBUQUERQUE NM LGT RAIN  66  58  75 SE18      30.20F
SALT LAKE CITY MOCLDY    86  47  25 SE6       29.95R
LOS ANGELES CA CLEAR     70  65  84 W7        29.87R
BOISE ID       CLEAR     85  37  18 W3        29.76R
SEATTLE WA     PTCLDY    63  53  70 SW13      29.96R
$$

*** WEATHER ACROSS MANITOBA...SASKATCHEWAN AND ONTARIO ***
                ***ONTARIO***

CITY           SKY/WX    TMP DP  RH WIND       PRES   REMARKS
GERALDTON      PTCLDY    54  46  76 S2        30.07S
THUNDER BAY    CLEAR     55  55 100 W3        30.05S
SIOUX LOOKOUT  PTCLDY    59  55  88 SE5       29.98F
TORONTO        MOCLDY    70  55  60 NE5       30.03S
BIG TROUT LK   PTCLDY    70  61  73 S3        29.88S
PICKLE LAKE    NOT AVBL
DRYDEN         PTCLDY    68  59  73 S8        29.98S
KENORA         PTCLDY    66  63  88 S7        29.96S
$$
                *** MANITOBA***

CITY           SKY/WX    TMP DP  RH WIND       PRES   REMARKS
BRANDON        CLEAR     68  64  88 SE6       29.80F
DAUPHIN        CLEAR     63  61  94 S5        29.77F
ISLAND LAKE    PTCLDY    73  59  60 S3        29.83S
PILOT MOUND      N/A    N/A N/A N/A SE7         N/A
THE PAS        PTCLDY    68  64  88 SE6       29.73F
THOMPSON       MOCLDY    64  63  94 NE7       29.79
WINNIPEG       MOCLDY    70  63  78 S12       29.86S
LYNN LAKE      MOCLDY    59  55  88 MISG      29.81S
CHURCHILL      CLOUDY    46  46 100 E10       29.91F FOG
GILLAM         CLOUDY    61  59  94 NE8       29.83S
$$
                ***SASKATCHEWAN***

CITY           SKY/WX    TMP DP  RH WIND       PRES   REMARKS
ESTEVAN        PTCLDY    66  61  82 SE8       29.77S
KINDERSLEY     TSTM      59  55  88 NW26G37   29.72R
LLOYDMINSTER   MOCLDY    57  55  94 NW6       29.71S
PRINCE ALBERT  PTCLDY    63  61  94 E5        29.67F
REGINA         PTCLDY    68  57  68 SE16      29.70F
YORKTON        CLEAR     68  61  77 S6        29.75S  C1F1C2F2C3F3C4F4C5F5C6F6C7F7C8F8C9F9CaFaCbFbCcFcCdFdCe!



USA.gov is the U.S. government's official web portal to all federal, state and local government web resources and services.